sat.trackr.live / text

‹ back to catalog

STARLINK-30796

NORAD 58189 · 2023-167Q

PAYLOAD ACTIVE UNKNOWN

§ Identity

Operator
Country
US
Launch date
2023-10-30
Launch site
AFETR
Launch vehicle
Mass (kg)
RCS (m²)

Purposes: comms

External: N2YO · Heavens-Above · Gunter

§ Orbital elements

Epoch: 2026-09-19T23:39:11.124288Z

Period
94.27 min
Inclination
43.0016°
Eccentricity
0.0001277
Mean motion
15.27578467 rev/d
Perigee alt
482.2 km
Apogee alt
483.9 km
Semi-major
6,861.2 km
B*
1.0357e-5
RAAN
125.8193°
Arg perigee
272.7433°
Mean anomaly
87.3273°
Rev number
16,070

§ Raw data

STARLINK-307961 58189U 23167Q   26262.98554542  .00000023  00000+0  10357-4 0  99942 58189  43.0016 125.8193 0001277 272.7433  87.3273 15.27578467160707

JSON: /api/v1/satellites/58189 · /tle

For live sub-satellite position, see the globe view (requires WebGL).

§ Visibility from observer

Set your observer location to see the next 7 days of passes ≥ 10°. The values pass through the URL so the page stays shareable.

No JS? Fill the form by hand. The geolocation button needs JavaScript.